Location: Aufkirchen
(47.9603°N, 11.3653°E)
Time: 11:49:32
(UTC+01:00)

Tiros 1 - Pass Details

Date: 01 December 2020
Orbit: 630 x 663 km, 48.4° (Epoch: 21 January)

Event Time Altitude Azimuth Distance (km) Brightness Sun altitude
Rises 20:27:13 0° 285° (WNW) 2,985 11.5 -39.9°
Reaches altitude 10° 20:29:48 10° 274° (W) 2,065 10.4 -40.3°
Enters shadow 20:30:09 12° 272° (W) 1,952 10.2 -40.4°
Maximum altitude 20:33:52 29° 216° (SW) 1,202 - -41.0°
Drops below altitude 10° 20:37:54 10° 156° (SSE) 2,039 - -41.6°
Sets 20:40:27 0° 145° (SE) 2,939 - -42.1°
